パロマー彗星

C/2020 T2 ( Palomar )

English version
Home page
Updated on January 9, 2023

---------------------------------------------------------------------

・ プロフィール

発見日 2020年10月7日
発見光度 19.3等
発見者 Dmitry A. Duev (Palomar, Zwicky Transient Facility's Twilight Survey)

・ 写真集

・ 軌道要素

Epoch 2022 Aug. 9.0 TT = JDT 2459800.5
T 2021 July 11.20634 TT                                 Rudenko
q   2.0560276            (2000.0)            P               Q
z  +0.0030795      Peri.  150.46855     -0.53840907     +0.70353835
 +/-0.0000006      Node    83.01053     -0.83532749     -0.37301120
e   0.9936685      Incl.   27.86014     -0.11110202     -0.60489373
From 2688 observations 2019 Dec. 11-2022 June 4, mean residual 0".4.

・ 星図

・ 光度変化

        m1 = 2.7 + 5 logΔ + 19.0 log r(t - 20)

---------------------------------------------------------------------

軌道要素はM.P.E.C. 2022-L66に掲載されたものです。
星図はステラナビゲータ Ver.10 (アストロアーツ) で作成したものです。
光度グラフはComet for Windowsで作成したものです。

---------------------------------------------------------------------

Copyright(C) Seiichi Yoshida (comet@aerith.net). All rights reserved.